| time (UTC) | temp C | wind direction | speed KPH | gust KPH | rain 1hr cm | rain 24hr cm | rain mn cm | humidity % | barometer mb |
| 20260506103004 | 12 | 228 | 0.0 | 0.0 | 0.05 | 0.13 | 0.05 | 92 | 1004.8 |
| 20260506101542 | 12 | 228 | 0.0 | 3.2 | 0.05 | 0.13 | 0.05 | 91 | 1004.6 |
| 20260506100058 | 12 | 228 | 0.0 | 1.6 | 0.03 | 0.10 | 0.03 | 90 | 1004.7 |
| 20260506094547 | 12 | 104 | 0.0 | 3.2 | 0.03 | 0.10 | 0.03 | 90 | 1004.5 |
| 20260506093051 | 13 | 272 | 0.0 | 1.6 | 0.00 | 0.08 | 0.00 | 88 | 1004.4 |
| 20260506091535 | 13 | 271 | 1.6 | 4.8 | 0.00 | 0.08 | 0.00 | 86 | 1004.6 |
| 20260506090013 | 13 | 269 | 0.0 | 1.6 | 0.00 | 0.08 | 0.00 | 82 | 1004.5 |
| 20260506084542 | 15 | 117 | 3.2 | 4.8 | 0.00 | 0.08 | 0.00 | 77 | 1004.8 |
| 20260506083016 | 15 | 219 | 0.0 | 3.2 | 0.00 | 0.08 | 0.00 | 72 | 1005.1 |
| 20260506081540 | 16 | 231 | 6.4 | 14.5 | 0.00 | 0.08 | 0.00 | 70 | 1005.4 |
| 20260506073016 | 16 | 311 | 8.0 | 30.6 | 0.00 | 0.13 | 0.00 | 67 | 1005.3 |
| 20260506071546 | 17 | 291 | 12.9 | 27.4 | 0.00 | 0.13 | 0.00 | 64 | 1005.4 |
| 20260506061552 | 13 | 97 | 0.0 | 0.0 | 0.00 | 0.13 | 0.00 | 75 | 1005.8 |
| 20260506044610 | 13 | 330 | 0.0 | 1.6 | 0.00 | 0.13 | 0.00 | 79 | 1006.3 |
| 20260506043016 | 13 | 330 | 0.0 | 1.6 | 0.00 | 0.13 | 0.00 | 81 | 1006.4 |
| 20260506041555 | 13 | 330 | 0.0 | 0.0 | 0.00 | 0.13 | 0.00 | 81 | 1006.5 |
| 20260506040041 | 13 | 330 | 0.0 | 0.0 | 0.00 | 0.13 | 0.13 | 82 | 1006.5 |
| 20260506034520 | 13 | 78 | 0.0 | 3.2 | 0.00 | 0.13 | 0.13 | 81 | 1006.3 |
| 20260506033055 | 13 | 281 | 0.0 | 1.6 | 0.00 | 0.13 | 0.13 | 81 | 1006.2 |
| 20260506031532 | 13 | 281 | 1.6 | 4.8 | 0.00 | 0.13 | 0.13 | 82 | 1006.1 |
| 20260506030057 | 13 | 281 | 0.0 | 0.0 | 0.00 | 0.13 | 0.13 | 79 | 1006.3 |
| 20260506024546 | 13 | 281 | 0.0 | 3.2 | 0.00 | 0.13 | 0.13 | 79 | 1006.4 |
| 20260506023100 | 14 | 281 | 1.6 | 3.2 | 0.00 | 0.13 | 0.13 | 78 | 1006.5 |
| 20260506021516 | 15 | 281 | 0.0 | 0.0 | 0.00 | 0.13 | 0.13 | 75 | 1006.5 |
| 20260506020050 | 15 | 281 | 0.0 | 3.2 | 0.00 | 0.13 | 0.13 | 74 | 1006.4 |
| 20260506014517 | 15 | 281 | 0.0 | 3.2 | 0.00 | 0.13 | 0.13 | 73 | 1006.3 |
| 20260506013040 | 16 | 139 | 0.0 | 3.2 | 0.00 | 0.13 | 0.13 | 69 | 1006.3 |
| 20260506011558 | 17 | 122 | 0.0 | 3.2 | 0.00 | 0.13 | 0.13 | 64 | 1006.1 |
| 20260506010040 | 18 | 256 | 1.6 | 3.2 | 0.00 | 0.13 | 0.13 | 62 | 1005.9 |
| 20260506004518 | 18 | 172 | 0.0 | 1.6 | 0.00 | 0.13 | 0.13 | 59 | 1006.0 |
| 20260506003020 | 20 | 215 | 1.6 | 11.3 | 0.00 | 0.13 | 0.13 | 56 | 1005.9 |
| 20260506001546 | 20 | 234 | 4.8 | 16.1 | 0.00 | 0.13 | 0.13 | 55 | 1005.7 |
| 20260506000055 | 20 | 231 | 4.8 | 12.9 | 0.00 | 0.13 | 0.13 | 56 | 1005.6 |
| 20260505234536 | 20 | 255 | 8.0 | 17.7 | 0.00 | 0.13 | 0.13 | 56 | 1005.6 |
| 20260505233049 | 20 | 206 | 4.8 | 9.7 | 0.00 | 0.13 | 0.13 | 56 | 1005.5 |
| 20260505231522 | 20 | 219 | 3.2 | 12.9 | 0.00 | 0.13 | 0.13 | 55 | 1005.4 |
| 20260505230054 | 21 | 255 | 4.8 | 11.3 | 0.00 | 0.13 | 0.13 | 54 | 1005.4 |
| 20260505224524 | 21 | 240 | 6.4 | 12.9 | 0.00 | 0.13 | 0.13 | 54 | 1005.5 |
| 20260505223101 | 20 | 238 | 4.8 | 16.1 | 0.00 | 0.13 | 0.13 | 55 | 1005.6 |
| 20260505223002 | 20 | 228 | 4.8 | 16.1 | 0.00 | 0.13 | 0.13 | 55 | 1005.6 |
| 20260505221522 | 21 | 253 | 16.1 | 22.5 | 0.00 | 0.13 | 0.13 | 55 | 1005.6 |
| 20260505220100 | 21 | 282 | 12.9 | 24.1 | 0.00 | 0.13 | 0.13 | 54 | 1005.6 |
| 20260505220002 | 21 | 250 | 11.3 | 20.9 | 0.00 | 0.13 | 0.13 | 55 | 1005.6 |
| 20260505214529 | 21 | 278 | 12.9 | 25.7 | 0.00 | 0.13 | 0.13 | 54 | 1005.5 |
| 20260505213052 | 20 | 256 | 11.3 | 29.0 | 0.00 | 0.13 | 0.13 | 56 | 1005.5 |
| 20260505211520 | 20 | 259 | 6.4 | 17.7 | 0.03 | 0.13 | 0.13 | 58 | 1005.6 |
| 20260505210048 | 20 | 262 | 9.7 | 17.7 | 0.03 | 0.13 | 0.13 | 58 | 1005.5 |
| 20260505204510 | 20 | 276 | 11.3 | 20.9 | 0.03 | 0.13 | 0.13 | 62 | 1005.6 |
| 20260505203038 | 22 | 262 | 11.3 | 17.7 | 0.03 | 0.13 | 0.13 | 52 | 1005.6 |
| 20260505201516 | 22 | 252 | 9.7 | 20.9 | 0.00 | 0.10 | 0.10 | 43 | 1005.0 |
| 20260505200043 | 22 | 243 | 8.0 | 19.3 | 0.00 | 0.10 | 0.10 | 46 | 1005.1 |
| 20260505194524 | 22 | 223 | 4.8 | 12.9 | 0.00 | 0.10 | 0.10 | 49 | 1005.4 |
| 20260505193042 | 22 | 229 | 6.4 | 17.7 | 0.00 | 0.10 | 0.10 | 47 | 1005.5 |
| 20260505191522 | 22 | 208 | 12.9 | 30.6 | 0.00 | 0.10 | 0.10 | 43 | 1005.6 |
| 20260505190044 | 22 | 219 | 12.9 | 22.5 | 0.00 | 0.10 | 0.10 | 42 | 1005.5 |
| 20260505184538 | 23 | 232 | 12.9 | 29.0 | 0.00 | 0.10 | 0.10 | 41 | 1005.3 |
| 20260505183057 | 23 | 241 | 11.3 | 29.0 | 0.00 | 0.10 | 0.10 | 39 | 1005.2 |
| 20260505181540 | 24 | 185 | 14.5 | 33.8 | 0.00 | 0.10 | 0.10 | 39 | 1005.1 |
| 20260505180107 | 23 | 148 | 11.3 | 29.0 | 0.00 | 0.10 | 0.10 | 42 | 1005.5 |
| 20260505180002 | 23 | 233 | 16.1 | 29.0 | 0.00 | 0.10 | 0.10 | 40 | 1005.5 |
| 20260505174552 | 23 | 169 | 11.3 | 33.8 | 0.00 | 0.10 | 0.10 | 40 | 1005.7 |
| 20260505173058 | 23 | 206 | 14.5 | 29.0 | 0.00 | 0.10 | 0.10 | 40 | 1005.9 |
| 20260505171536 | 23 | 211 | 9.7 | 25.7 | 0.00 | 0.10 | 0.10 | 43 | 1006.1 |
| 20260505170010 | 22 | 257 | 16.1 | 30.6 | 0.00 | 0.10 | 0.10 | 44 | 1006.1 |
| 20260505164540 | 22 | 247 | 16.1 | 37.0 | 0.00 | 0.10 | 0.10 | 44 | 1006.3 |
| 20260505163011 | 21 | 179 | 11.3 | 27.4 | 0.00 | 0.10 | 0.10 | 47 | 1006.2 |
| 20260505161534 | 22 | 219 | 19.3 | 33.8 | 0.00 | 0.10 | 0.10 | 47 | 1006.6 |
| 20260505153012 | 21 | 226 | 12.9 | 30.6 | 0.00 | 0.10 | 0.10 | 52 | 1007.3 |
| 20260505151532 | 20 | 251 | 14.5 | 32.2 | 0.00 | 0.10 | 0.10 | 52 | 1007.4 |
| 20260505124524 | 17 | 255 | 4.8 | 11.3 | 0.00 | 0.10 | 0.10 | 77 | 1007.5 |
| 20260505123043 | 16 | 263 | 3.2 | 6.4 | 0.00 | 0.10 | 0.10 | 81 | 1007.5 |
| 20260505121525 | 14 | 229 | 3.2 | 6.4 | 0.00 | 0.10 | 0.10 | 85 | 1007.7 |
| 20260505120039 | 13 | 219 | 0.0 | 6.4 | 0.00 | 0.10 | 0.10 | 85 | 1007.8 |
| 20260505114522 | 13 | 226 | 1.6 | 6.4 | 0.03 | 0.10 | 0.10 | 87 | 1007.9 |
| 20260505113047 | 12 | 235 | 0.0 | 3.2 | 0.05 | 0.10 | 0.10 | 90 | 1007.9 |
| 20260505111524 | 11 | 246 | 1.6 | 3.2 | 0.05 | 0.10 | 0.10 | 89 | 1007.6 |